Observations for Trim Market St
| Time | AQI | Temp °C | Hum % | Pres Pa | CO μg/m³ | H₂S μg/m³ | NO μg/m³ | NO₂ μg/m³ | O₃ μg/m³ | SO₂ μg/m³ | PM1 μg/m³ | PM2.5 μg/m³ | PM10 μg/m³ |
|---|---|---|---|---|---|---|---|---|---|---|---|---|---|
| Thursday 16 July 2026 | |||||||||||||
| 13:37 | 1 | 36.8 | 30 | 66,629 | 0.26 | 0 | 0 | 4.06 | 38.14 | 0 | 6.41 | 12.55 | 16.18 |
| 13:36 | 1 | 36.8 | 30 | 66,633 | 0 | 0 | 0 | 4.78 | 24.27 | 0 | 8.55 | 13.11 | 19.66 |
| 13:34 | 1 | 36.9 | 30 | 66,641 | 0 | 0 | 0 | 0 | 28.78 | 0 | 7.13 | 11.49 | 15.33 |
| 13:31 | 1 | 36.9 | 30 | 66,637 | 0 | 0 | 0 | 0 | 23.88 | 0 | 7.13 | 13.66 | 20.54 |
| 13:29 | 1 | 36.8 | 30 | 66,657 | 0 | 0 | 0 | 2.17 | 30.94 | 0 | 8.55 | 13.65 | 18.79 |
| 13:23 | 1 | 36.1 | 31 | 66,566 | 0 | 0 | 0 | 0 | 37.94 | 0 | 9.98 | 14.65 | 21.28 |
| 13:18 | 1 | 35.5 | 31 | 66,499 | 0 | 0 | 0 | 0 | 36.56 | 0 | 9.26 | 16.25 | 22.96 |
| 13:17 | 1 | 35.4 | 32 | 66,507 | 0 | 0 | 0 | 5.64 | 30.93 | 0 | 7.84 | 15.14 | 22.92 |
| 13:16 | 1 | 35.3 | 32 | 66,467 | 0 | 0 | 0 | 3.17 | 46.01 | 0 | 8.55 | 13.52 | 18.65 |
| 13:15 | 1 | 35.2 | 31 | 66,474 | 0 | 0 | 0 | 1.83 | 43.93 | 0 | 9.26 | 14.08 | 19.53 |
| 13:14 | 1 | 35.2 | 31 | 66,457 | 0 | 0 | 0 | 0.74 | 39.52 | 0 | 8.55 | 15.17 | 20.39 |
| 13:13 | 1 | 35.2 | 31 | 66,461 | 0 | 0 | 0 | 6.24 | 34.01 | 0 | 7.84 | 13.01 | 17.82 |
| 13:12 | 1 | 35.3 | 31 | 66,469 | 0 | 0 | 0 | 0 | 32.16 | 0 | 9.98 | 15.17 | 20.38 |
| 13:11 | 1 | 35.3 | 31 | 66,483 | 0 | 0 | 0 | 0.09 | 43.21 | 0 | 7.84 | 14.08 | 21.23 |
| 13:10 | 1 | 35.3 | 31 | 66,465 | 0 | 0 | 0 | 0 | 34.46 | 0 | 9.26 | 17.32 | 23.8 |
| 13:08 | 1 | 35.3 | 31 | 66,449 | 0 | 0 | 0 | 2.71 | 35.38 | 0 | 7.13 | 16.26 | 22.97 |
| 12:48 | 1 | 35.5 | 32 | 66,531 | 0 | 0 | 0 | 0 | 31.17 | 0 | 7.84 | 15.14 | 20.36 |
| 12:38 | 1 | 36 | 31 | 66,545 | 0 | 0 | 0 | 0 | 40.33 | 0.32 | 8.55 | 14.65 | 21.27 |
| 12:37 | 1 | 36 | 31 | 66,572 | 0 | 0 | 0 | 1.66 | 42.71 | 0.07 | 7.13 | 13.03 | 18.7 |
| 12:35 | 1 | 36.1 | 31 | 66,582 | 0 | 0 | 0 | 0 | 28.65 | 0.92 | 8.55 | 16.29 | 24.73 |